| time (UTC) | temp C | wind direction | speed KPH | gust KPH | rain 1hr cm | rain 24hr cm | rain mn cm | humidity % | barometer mb |
| 20260508074647 | 13 | 263 | 9.7 | 19.3 | 0.00 | 0.00 | 0.00 | 51 | 1016.7 |
| 20260508073029 | 13 | 252 | 12.9 | 22.5 | 0.00 | 0.00 | 0.00 | 50 | 1016.6 |
| 20260508071531 | 13 | 250 | 14.5 | 22.5 | 0.00 | 0.05 | 0.00 | 49 | 1016.5 |
| 20260508070108 | 14 | 249 | 12.9 | 22.5 | 0.00 | 0.20 | 0.00 | 48 | 1016.5 |
| 20260508064530 | 14 | 252 | 14.5 | 24.1 | 0.00 | 0.20 | 0.20 | 46 | 1016.4 |
| 20260508063030 | 15 | 248 | 12.9 | 27.4 | 0.00 | 0.20 | 0.20 | 45 | 1016.4 |
| 20260508060029 | 15 | 248 | 14.5 | 25.7 | 0.00 | 0.20 | 0.20 | 44 | 1016.4 |
| 20260508054531 | 15 | 250 | 16.1 | 29.0 | 0.00 | 0.20 | 0.20 | 44 | 1016.4 |
| 20260508053031 | 16 | 244 | 16.1 | 25.7 | 0.00 | 0.20 | 0.20 | 43 | 1016.5 |
| 20260508051529 | 16 | 249 | 16.1 | 27.4 | 0.00 | 0.20 | 0.20 | 43 | 1016.4 |
| 20260508050030 | 16 | 248 | 17.7 | 29.0 | 0.00 | 0.20 | 0.20 | 42 | 1016.2 |
| 20260508044531 | 16 | 249 | 16.1 | 29.0 | 0.00 | 0.20 | 0.20 | 41 | 1016.1 |
| 20260508043030 | 16 | 249 | 14.5 | 24.1 | 0.00 | 0.20 | 0.20 | 40 | 1016.2 |
| 20260508040032 | 17 | 247 | 16.1 | 35.4 | 0.00 | 0.20 | 0.20 | 35 | 1015.8 |
| 20260508034605 | 17 | 250 | 16.1 | 30.6 | 0.00 | 0.20 | 0.20 | 33 | 1015.6 |
| 20260508033030 | 17 | 253 | 16.1 | 29.0 | 0.00 | 0.20 | 0.20 | 30 | 1015.4 |
| 20260508030033 | 18 | 250 | 24.1 | 37.0 | 0.00 | 0.20 | 0.20 | 24 | 1015.2 |
| 20260508024530 | 19 | 252 | 25.7 | 41.8 | 0.00 | 0.20 | 0.20 | 23 | 1015.0 |
| 20260508020108 | 20 | 244 | 20.9 | 40.2 | 0.00 | 0.20 | 0.20 | 22 | 1014.8 |
| 20260508014531 | 21 | 248 | 19.3 | 38.6 | 0.00 | 0.20 | 0.20 | 22 | 1014.9 |
| 20260508011529 | 21 | 248 | 16.1 | 33.8 | 0.00 | 0.20 | 0.20 | 23 | 1015.3 |
| 20260508010031 | 21 | 259 | 19.3 | 37.0 | 0.00 | 0.20 | 0.20 | 22 | 1015.4 |
| 20260508003029 | 21 | 258 | 17.7 | 32.2 | 0.00 | 0.20 | 0.20 | 21 | 1015.6 |
| 20260508001532 | 21 | 258 | 19.3 | 37.0 | 0.00 | 0.20 | 0.20 | 20 | 1015.5 |
| 20260508000032 | 21 | 259 | 22.5 | 37.0 | 0.00 | 0.20 | 0.20 | 19 | 1015.5 |
| 20260507234533 | 21 | 257 | 22.5 | 38.6 | 0.00 | 0.20 | 0.20 | 19 | 1015.4 |
| 20260507233032 | 21 | 253 | 25.7 | 41.8 | 0.00 | 0.20 | 0.20 | 21 | 1015.5 |
| 20260507231531 | 21 | 256 | 25.7 | 40.2 | 0.00 | 0.20 | 0.20 | 23 | 1015.6 |
| 20260507224529 | 21 | 254 | 25.7 | 40.2 | 0.00 | 0.20 | 0.20 | 29 | 1015.9 |
| 20260507223029 | 21 | 256 | 24.1 | 38.6 | 0.00 | 0.25 | 0.20 | 30 | 1015.9 |
| 20260507221607 | 21 | 257 | 24.1 | 40.2 | 0.00 | 0.30 | 0.20 | 31 | 1016.0 |
| 20260507220035 | 21 | 255 | 25.7 | 38.6 | 0.00 | 0.30 | 0.20 | 31 | 1016.1 |
| 20260507214533 | 21 | 255 | 24.1 | 41.8 | 0.00 | 0.30 | 0.20 | 31 | 1016.2 |
| 20260507213035 | 21 | 257 | 20.9 | 38.6 | 0.00 | 0.30 | 0.20 | 33 | 1016.4 |
| 20260507211541 | 21 | 251 | 20.9 | 41.8 | 0.00 | 0.30 | 0.20 | 34 | 1016.5 |
| 20260507210031 | 20 | 259 | 22.5 | 38.6 | 0.00 | 0.30 | 0.20 | 37 | 1016.6 |
| 20260507204607 | 20 | 260 | 24.1 | 40.2 | 0.00 | 0.30 | 0.20 | 37 | 1016.7 |
| 20260507203032 | 19 | 260 | 24.1 | 45.1 | 0.00 | 0.30 | 0.20 | 39 | 1016.8 |
| 20260507201532 | 19 | 261 | 24.1 | 38.6 | 0.00 | 0.30 | 0.20 | 38 | 1017.1 |
| 20260507194529 | 18 | 258 | 24.1 | 41.8 | 0.00 | 0.30 | 0.20 | 38 | 1017.5 |
| 20260507193107 | 18 | 254 | 22.5 | 37.0 | 0.00 | 0.30 | 0.20 | 40 | 1017.7 |
| 20260507191530 | 18 | 256 | 20.9 | 38.6 | 0.00 | 0.30 | 0.20 | 40 | 1017.8 |
| 20260507190029 | 17 | 261 | 19.3 | 32.2 | 0.00 | 0.30 | 0.20 | 42 | 1018.0 |
| 20260507184533 | 17 | 261 | 20.9 | 37.0 | 0.00 | 0.30 | 0.20 | 43 | 1018.1 |
| 20260507183041 | 17 | 255 | 20.9 | 37.0 | 0.00 | 0.36 | 0.20 | 45 | 1018.3 |
| 20260507181532 | 16 | 254 | 22.5 | 38.6 | 0.00 | 0.36 | 0.20 | 46 | 1018.2 |
| 20260507180030 | 16 | 259 | 20.9 | 40.2 | 0.00 | 0.36 | 0.20 | 50 | 1018.4 |
| 20260507174606 | 16 | 266 | 19.3 | 38.6 | 0.00 | 0.36 | 0.20 | 52 | 1018.5 |
| 20260507173029 | 15 | 255 | 22.5 | 38.6 | 0.00 | 0.36 | 0.20 | 53 | 1018.6 |
| 20260507170031 | 14 | 255 | 17.7 | 30.6 | 0.00 | 0.36 | 0.20 | 59 | 1018.9 |
| 20260507163137 | 13 | 255 | 22.5 | 40.2 | 0.00 | 0.36 | 0.20 | 62 | 1018.9 |
| 20260507163128 | 13 | 256 | 22.5 | 41.8 | 0.00 | 0.36 | 0.20 | 64 | 1019.1 |
| 20260507153032 | 12 | 240 | 19.3 | 38.6 | 0.00 | 0.36 | 0.20 | 69 | 1019.7 |
| 20260507151531 | 12 | 243 | 16.1 | 32.2 | 0.00 | 0.36 | 0.20 | 71 | 1019.7 |
| 20260507150038 | 12 | 232 | 11.3 | 22.5 | 0.00 | 0.36 | 0.20 | 73 | 1019.8 |
| 20260507144647 | 11 | 232 | 8.0 | 20.9 | 0.00 | 0.36 | 0.20 | 75 | 1019.8 |
| 20260507143030 | 11 | 237 | 8.0 | 22.5 | 0.00 | 0.36 | 0.20 | 76 | 1019.7 |
| 20260507141530 | 11 | 261 | 17.7 | 56.3 | 0.00 | 0.36 | 0.20 | 76 | 1019.7 |
| 20260507140031 | 11 | 252 | 17.7 | 37.0 | 0.00 | 0.36 | 0.20 | 77 | 1019.4 |
| 20260507133029 | 11 | 245 | 22.5 | 38.6 | 0.00 | 0.36 | 0.20 | 79 | 1019.0 |
| 20260507131530 | 11 | 236 | 19.3 | 40.2 | 0.00 | 0.36 | 0.20 | 79 | 1018.9 |
| 20260507130030 | 11 | 229 | 16.1 | 37.0 | 0.00 | 0.36 | 0.20 | 78 | 1018.9 |
| 20260507124530 | 11 | 233 | 17.7 | 30.6 | 0.00 | 0.36 | 0.20 | 77 | 1018.9 |
| 20260507123030 | 11 | 243 | 22.5 | 57.9 | 0.00 | 0.36 | 0.20 | 76 | 1018.7 |
| 20260507121607 | 11 | 242 | 22.5 | 40.2 | 0.00 | 0.36 | 0.20 | 76 | 1018.6 |
| 20260507114536 | 12 | 244 | 24.1 | 40.2 | 0.00 | 0.36 | 0.20 | 76 | 1018.5 |
| 20260507111531 | 12 | 243 | 20.9 | 48.3 | 0.00 | 0.36 | 0.20 | 76 | 1018.5 |
| 20260507110105 | 12 | 244 | 17.7 | 54.7 | 0.00 | 0.36 | 0.20 | 76 | 1018.4 |
| 20260507104530 | 12 | 236 | 19.3 | 37.0 | 0.00 | 0.36 | 0.20 | 76 | 1018.2 |
| 20260507103033 | 12 | 238 | 20.9 | 48.3 | 0.00 | 0.36 | 0.20 | 76 | 1018.1 |
| 20260507101531 | 12 | 238 | 24.1 | 49.9 | 0.00 | 0.36 | 0.20 | 76 | 1018.1 |
| 20260507100043 | 12 | 242 | 24.1 | 56.3 | 0.00 | 0.36 | 0.20 | 75 | 1018.0 |
| 20260507094530 | 13 | 244 | 25.7 | 51.5 | 0.00 | 0.36 | 0.20 | 74 | 1017.9 |
| 20260507093034 | 13 | 245 | 25.7 | 49.9 | 0.00 | 0.36 | 0.20 | 74 | 1018.0 |
| 20260507091531 | 13 | 247 | 24.1 | 43.5 | 0.00 | 0.36 | 0.20 | 74 | 1018.1 |
| 20260507090033 | 13 | 247 | 24.1 | 46.7 | 0.00 | 0.36 | 0.20 | 74 | 1018.3 |
| 20260507084530 | 13 | 250 | 22.5 | 45.1 | 0.00 | 0.36 | 0.20 | 75 | 1018.2 |
| 20260507083106 | 13 | 252 | 24.1 | 56.3 | 0.00 | 0.36 | 0.20 | 75 | 1018.0 |
| 20260507081536 | 13 | 252 | 32.2 | 72.4 | 0.05 | 0.36 | 0.20 | 74 | 1017.7 |
| 20260507080030 | 14 | 245 | 29.0 | 91.7 | 0.20 | 0.36 | 0.20 | 73 | 1017.5 |